Weather History for KPPO - March, 2013

Change the Weather History Date:

Saturday, March 2, 2013

  Actual Average (KVPZ) Record (KVPZ)
Temperature  
Mean Temperature 28 °F 33 °F  
Max Temperature 31 °F 41 °F 67 °F (1974)
Min Temperature 24 °F 25 °F -3 °F (1925)
Degree Days  
Heating Degree Days 38 32  
Month to date heating degree days 65  
Since 1 July heating degree days 4797  
Cooling Degree Days 0 0  
Month to date cooling degree days 0  
Year to date cooling degree days 0  
Moisture  
Dew Point 20 °F    
Average Humidity 73    
Maximum Humidity 88    
Minimum Humidity 61    
Precipitation  
Precipitation 0.00 in 0.08 in 0.90 in (1991)
Month to date precipitation 0.16  
Year to date precipitation 3.33  
Sea Level Pressure  
Sea Level Pressure 30.11 in    
Wind  
Wind Speed 9 mph (North)    
Max Wind Speed 17 mph    
Max Gust Speed 23 mph    
Visibility 10 miles    
Events Snow    
T = Trace of Precipitation, MM = Missing Value Source: NWS Daily Summary

Daily Weather History Graph

Daily Weather History Graph

Search for Another Location

Airport or City:

Trip Planner

Search our weather history database for the weather conditions in past years. The results will help you decide how hot, cold, wet, or windy it might be!

Date:

Astronomy

Mar. 02, 2013 Rise Set
Actual Time 6:19 AM CST 5:38 PM CST
Civil Twilight 5:51 AM CST 6:06 PM CST
Nautical Twilight 5:19 AM CST 6:38 PM CST
Astronomical Twilight 4:47 AM CST 7:11 PM CST
Moon 11:22 PM CST (3/2) 8:42 AM CST (3/2)
Length of Visible Light 12h 14m
Length of Day
11h 19m
Waning Gibbous, 74% of the Moon is Illuminated
Mar 2
Waning Gibbous
Mar 4
Last Quarter
Mar 11
New
Mar 19
First Quarter
Mar 27
Full

Hourly Weather History & Observations

Time (CST) Temp. Windchill Dew Point Humidity Pressure Visibility Wind Dir Wind Speed Gust Speed Precip Events Conditions
12:35 AM 24.3 °F 17.3 °F 18.5 °F 79% 30.12 in 10.0 mi ENE 5.8 mph - N/A   Clear
12:55 AM 24.1 °F 15.2 °F 17.8 °F 77% 30.12 in 10.0 mi East 8.1 mph - N/A   Clear
1:15 AM 25.5 °F 16.9 °F 16.3 °F 68% 30.12 in 10.0 mi East 8.1 mph - N/A   Scattered Clouds
1:35 AM 25.5 °F 16.9 °F 16.7 °F 69% 30.11 in 10.0 mi ENE 8.1 mph - N/A   Scattered Clouds
1:55 AM 25.9 °F 17.4 °F 17.4 °F 70% 30.11 in 10.0 mi East 8.1 mph - N/A   Overcast
2:15 AM 25.9 °F 20.3 °F 17.1 °F 69% 30.11 in 10.0 mi NNE 4.6 mph - N/A   Overcast
2:35 AM 26.1 °F 20.5 °F 16.9 °F 68% 30.11 in 10.0 mi NNE 4.6 mph - N/A   Overcast
2:55 AM 25.9 °F 21.7 °F 16.9 °F 69% 30.11 in 10.0 mi North 3.5 mph - N/A   Overcast
3:15 AM 26.2 °F 20.7 °F 16.7 °F 67% 30.11 in 10.0 mi NNE 4.6 mph - N/A   Overcast
3:35 AM 26.2 °F 20.7 °F 17.4 °F 69% 30.11 in 10.0 mi NNE 4.6 mph - N/A   Overcast
3:55 AM 26.2 °F 20.7 °F 18.0 °F 71% 30.11 in 10.0 mi North 4.6 mph - N/A   Overcast
4:15 AM 26.1 °F 19.4 °F 16.9 °F 68% 30.11 in 10.0 mi NNE 5.8 mph - N/A   Overcast
4:35 AM 26.1 °F 19.4 °F 17.6 °F 70% 30.11 in 10.0 mi North 5.8 mph - N/A   Overcast
4:55 AM 26.1 °F 16.8 °F 19.0 °F 75% 30.11 in 10.0 mi North 9.2 mph - N/A   Overcast
5:15 AM 25.9 °F 18.2 °F 19.9 °F 78% 30.11 in 10.0 mi North 6.9 mph - N/A   Overcast
5:35 AM 25.9 °F 18.2 °F 20.1 °F 79% 30.11 in 10.0 mi North 6.9 mph - N/A   Overcast
5:55 AM 26.1 °F 15.6 °F 19.8 °F 77% 30.11 in 10.0 mi North 11.5 mph - N/A   Overcast
6:15 AM 25.7 °F 15.7 °F 19.2 °F 76% 30.11 in 10.0 mi NNE 10.4 mph - N/A   Overcast
6:35 AM 25.3 °F 16.0 °F 19.0 °F 77% 30.12 in 10.0 mi North 9.2 mph - N/A   Overcast
6:55 AM 25.2 °F 13.9 °F 18.3 °F 75% 30.13 in 10.0 mi NNE 12.7 mph 17.3 mph N/A   Overcast
7:15 AM 25.5 °F 15.5 °F 17.2 °F 71% 30.12 in 10.0 mi NNE 10.4 mph - N/A   Overcast
7:35 AM 25.7 °F 15.7 °F 18.0 °F 73% 30.13 in 10.0 mi North 10.4 mph - N/A   Overcast
7:55 AM 25.7 °F 15.7 °F 18.5 °F 74% 30.13 in 10.0 mi NNE 10.4 mph - N/A   Overcast
8:15 AM 26.1 °F 16.8 °F 18.3 °F 73% 30.13 in 10.0 mi North 9.2 mph - N/A   Overcast
8:35 AM 26.6 °F 17.5 °F 18.9 °F 73% 30.13 in 10.0 mi NNE 9.2 mph - N/A   Overcast
8:55 AM 26.6 °F 17.5 °F 18.5 °F 71% 30.13 in 10.0 mi NNE 9.2 mph - N/A   Overcast
9:15 AM 26.6 °F 17.5 °F 18.5 °F 71% 30.13 in 10.0 mi North 9.2 mph - N/A   Overcast
9:35 AM 27.1 °F 17.5 °F 18.5 °F 70% 30.13 in 10.0 mi North 10.4 mph - N/A   Overcast
9:55 AM 28.0 °F 20.0 °F 19.0 °F 69% 30.13 in 10.0 mi NE 8.1 mph - N/A   Overcast
10:15 AM 28.4 °F 20.4 °F 19.2 °F 69% 30.13 in 10.0 mi NE 8.1 mph 16.1 mph N/A   Overcast
10:35 AM 29.5 °F 21.8 °F 18.9 °F 65% 30.12 in 10.0 mi NNE 8.1 mph - N/A   Mostly Cloudy
10:55 AM 30.2 °F 21.9 °F 19.6 °F 65% 30.12 in 10.0 mi NNE 9.2 mph - N/A   Mostly Cloudy
11:15 AM 30.6 °F 22.4 °F 18.7 °F 61% 30.12 in 10.0 mi North 9.2 mph 18.4 mph N/A   Overcast
11:35 AM 30.7 °F 20.9 °F 20.8 °F 67% 30.12 in 10.0 mi North 12.7 mph 17.3 mph N/A   Overcast
11:55 AM 29.8 °F 19.8 °F 19.9 °F 67% 30.11 in 10.0 mi North 12.7 mph 18.4 mph N/A   Overcast
12:35 PM 30.7 °F 20.0 °F 21.4 °F 68% 30.10 in 10.0 mi North 15.0 mph - N/A   Mostly Cloudy
12:55 PM 31.1 °F 20.9 °F 21.6 °F 68% 30.10 in 10.0 mi North 13.8 mph 21.9 mph N/A   Scattered Clouds
1:15 PM 31.1 °F 21.4 °F 21.0 °F 66% 30.10 in 10.0 mi North 12.7 mph 21.9 mph N/A   Scattered Clouds
1:35 PM 31.6 °F 20.4 °F 21.9 °F 67% 30.09 in 10.0 mi North 17.3 mph 21.9 mph N/A   Mostly Cloudy
1:55 PM 31.5 °F 20.9 °F 21.4 °F 66% 30.09 in 10.0 mi North 15.0 mph 20.7 mph N/A   Mostly Cloudy
2:15 PM 30.0 °F 19.1 °F 20.3 °F 67% 30.09 in 10.0 mi North 15.0 mph 23.0 mph N/A   Mostly Cloudy
2:35 PM 30.6 °F 20.2 °F 21.7 °F 70% 30.09 in 10.0 mi North 13.8 mph 18.4 mph N/A   Overcast
2:55 PM 30.6 °F 19.8 °F 21.2 °F 68% 30.09 in 10.0 mi North 15.0 mph 20.7 mph N/A   Overcast
3:15 PM 30.0 °F 18.7 °F 20.3 °F 67% 30.09 in 10.0 mi North 16.1 mph 23.0 mph N/A   Mostly Cloudy
3:35 PM 29.3 °F 20.2 °F 20.7 °F 70% 30.09 in 10.0 mi North 10.4 mph - N/A   Overcast
3:55 PM 29.3 °F 19.6 °F 20.8 °F 71% 30.10 in 10.0 mi North 11.5 mph 17.3 mph N/A   Overcast
4:15 PM 29.1 °F 18.4 °F 20.3 °F 70% 30.10 in 10.0 mi North 13.8 mph - N/A   Overcast
4:35 PM 29.1 °F 18.9 °F 20.1 °F 69% 30.10 in 10.0 mi North 12.7 mph - N/A   Overcast
4:55 PM 28.4 °F 17.5 °F 24.3 °F 84% 30.10 in 4.0 mi NNW 13.8 mph 17.3 mph N/A Snow Light Snow
5:15 PM 27.5 °F 17.4 °F 24.3 °F 88% 30.11 in 4.0 mi NNW 11.5 mph 20.7 mph N/A Snow Light Snow
5:35 PM 27.7 °F 17.1 °F 24.4 °F 88% 30.11 in 7.0 mi NNW 12.7 mph 16.1 mph N/A Snow Light Snow
5:55 PM 27.5 °F 16.8 °F 23.9 °F 86% 30.11 in 7.0 mi NW 12.7 mph 19.6 mph N/A Snow Light Snow
6:15 PM 27.3 °F 16.1 °F 23.9 °F 87% 30.11 in 5.0 mi NNW 13.8 mph - N/A Snow Light Snow
6:35 PM 27.3 °F 15.2 °F 23.4 °F 85% 30.11 in 10.0 mi NNW 16.1 mph 21.9 mph N/A   Overcast
6:55 PM 27.5 °F 16.8 °F 21.0 °F 77% 30.11 in 10.0 mi NNW 12.7 mph - N/A   Overcast
7:15 PM 27.5 °F 16.3 °F 19.6 °F 72% 30.11 in 10.0 mi NNW 13.8 mph - N/A   Overcast
7:35 PM 27.3 °F 16.6 °F 18.9 °F 70% 30.11 in 10.0 mi NW 12.7 mph 17.3 mph N/A   Overcast
7:55 PM 27.1 °F 16.4 °F 19.2 °F 72% 30.11 in 10.0 mi NW 12.7 mph 17.3 mph N/A   Overcast
8:15 PM 27.1 °F 16.4 °F 19.8 °F 74% 30.12 in 10.0 mi NW 12.7 mph 20.7 mph N/A   Overcast
8:35 PM 26.8 °F 17.7 °F 19.9 °F 75% 30.12 in 10.0 mi NW 9.2 mph 16.1 mph N/A   Overcast
8:55 PM 26.8 °F 15.9 °F 19.8 °F 75% 30.12 in 10.0 mi NW 12.7 mph 17.3 mph N/A   Overcast
9:15 PM 26.6 °F 18.2 °F 19.4 °F 74% 30.11 in 10.0 mi WNW 8.1 mph 16.1 mph N/A   Overcast
9:35 PM 26.8 °F 16.5 °F 19.9 °F 75% 30.11 in 10.0 mi NW 11.5 mph 18.4 mph N/A   Overcast
9:55 PM 26.6 °F 18.2 °F 20.3 °F 77% 30.11 in 10.0 mi WNW 8.1 mph - N/A   Overcast
10:15 PM 27.1 °F 17.5 °F 20.8 °F 77% 30.11 in 10.0 mi NW 10.4 mph - N/A   Overcast
10:35 PM 27.5 °F 15.9 °F 20.5 °F 75% 30.11 in 10.0 mi NW 15.0 mph 19.6 mph N/A   Overcast
10:55 PM 27.1 °F 18.2 °F 20.8 °F 77% 30.11 in 10.0 mi NW 9.2 mph - N/A   Overcast
11:15 PM 26.8 °F 18.5 °F 21.0 °F 79% 30.10 in 10.0 mi WNW 8.1 mph - N/A   Overcast
11:35 PM 26.2 °F 18.6 °F 20.8 °F 80% 30.10 in 10.0 mi WNW 6.9 mph 16.1 mph N/A   Overcast
11:55 PM 26.2 °F 17.1 °F 22.1 °F 84% 30.10 in 10.0 mi WNW 9.2 mph 18.4 mph N/A Snow Light Snow